Regional Weather Roundup
Issued by NWS

Home | Current Version | Previous Version | Graphics & Text | Print | Product List | Glossary On
Versions: 1 2 3 4 5 6 7 8 9 10 11 12 13 14 15 16 17 18 19 20 21 22 23 24 25 26 27 28 29 30 31 32 33 34 35 36 37 38 39 40 41 42 43 44 45 46 47 48 49 50
000
ASUS43 KMPX 301301
RWRMN
WEATHER ROUNDUP FOR MINNESOTA
NATIONAL WEATHER SERVICE TWIN CITIES/CHANHASSEN MN
800 AM CDT THU OCT 30 2014


NOTE: "FAIR" INDICATES FEW OR NO CLOUDS BELOW 12,000 FEET WITH NO
SIGNIFICANT WEATHER AND/OR OBSTRUCTIONS TO VISIBILITY. N/A MEANS
CURRENT SKY AND/OR WEATHER CONDITIONS ARE NOT AVAILABLE.

MNZ060>063-068>070-301400-
   Twin Cities Metro

CITY           SKY/WX    TMP DP  RH WIND       PRES   REMARKS
TWIN CITIES    CLOUDY    40  33  76 SE3       30.04F
ST PAUL        CLOUDY    39  35  86 S3        30.06S
CRYSTAL        CLOUDY    41  35  79 E3        30.03S
LAKEVILLE      CLOUDY    36  34  93 E3        30.04S
EDEN PRAIRIE   CLOUDY    40  34  79 E3        30.03S
SOUTH ST PAUL  CLOUDY    39  34  80 CALM      30.05S
LAKE ELMO      CLOUDY    37  36  93 CALM      30.06R
$$
MNZ001>005-007-008-013>017-022>024-027-028-301400-
   Northwest Minnesota

CITY           SKY/WX    TMP DP  RH WIND       PRES   REMARKS
BEMIDJI        CLOUDY    34  32  94 NW3       30.07R
HALLOCK        CLOUDY    34  30  86 NW8       30.17R WCI  27
ROSEAU         CLOUDY    34  30  86 NW6       30.14R WCI  29
WARROAD        CLOUDY    34  30  86 NW8       30.13R WCI  27
THIEF RVR FALL CLOUDY    34  30  86 N6        30.13R WCI  29
CROOKSTON      PTCLDY    32  30  93 N7        30.15R WCI  26
FOSSTON        CLOUDY    34  32  93 CALM      30.10R
DETROIT LAKES  DRIZZLE   37  36  93 NE3       30.07R
MOORHEAD       DRIZZLE   39  39 100 N8        30.10R
PARK RAPIDS    CLOUDY    35  34  96 CALM      30.05R
MAHNOMEN       CLOUDY    35  35  98 N6        30.08R WCI  30
$$
MNZ006-009>011-018-025>026-301400-
   North Central Minnesota

CITY           SKY/WX    TMP DP  RH WIND       PRES   REMARKS
BAUDETTE       CLOUDY    35  33  92 W5        30.09R WCI  31
FLAG ISLAND    CLOUDY    36  34  93 NW14      30.10R
INTL FALLS     CLOUDY    34  32  92 NW6       30.06S WCI  29
WASKISH        CLOUDY    34  32  93 CALM      30.09S
BIG FORK       MOCLDY    34  30  86 CALM      30.07S
LONGVILLE      CLOUDY    36  34  93 CALM      30.05S
GRAND RAPIDS   CLOUDY    34  32  93 N3        30.06R
CRANE LAKE     LGT RAIN  34  32  93 W3        30.07S
ORR            CLOUDY    34  30  86 NW6       30.04R WCI  29
COOK           CLOUDY    34  32  93 CALM      30.06R
WALKER         CLOUDY    34  32  94 CALM      30.06S
$$
MNZ012-019>021-037-301400-
   Northeast Minnesota

CITY           SKY/WX    TMP DP  RH WIND       PRES   REMARKS
DULUTH         CLOUDY    36  32  85 NW5       30.03S
ELY            CLOUDY    34  32  93 CALM      30.03S
HIBBING        CLOUDY    36  31  82 N6        30.05R
EVELETH        CLOUDY    34  32  93 NW3       30.05S
DULUTH HARBOR  CLOUDY    39  36  87 CALM      30.07S
TWO HARBORS    CLOUDY    37 N/A N/A CALM      30.03S
SILVER BAY     CLOUDY    37  34  87 CALM      30.01S
GRAND MARAIS     N/A     39  35  86 CALM      30.02S
G MARAIS ARPRT CLOUDY    34  30  86 NW1       30.00S
$$
MNZ029>031-032-039>041-046>048-054>057-064-301400-
   West Central Minnesota

CITY           SKY/WX    TMP DP  RH WIND       PRES   REMARKS
FERGUS FALLS   DRIZZLE   39  37  93 CALM      30.07R
WHEATON        CLOUDY    37  36  93 CALM      30.07R
MORRIS         CLOUDY    37  36  93 CALM      30.03R
ALEXANDRIA     CLOUDY    39  35  86 NE3       30.05R
ELBOW LAKE     CLOUDY    38  37  94 N3        30.04R
WADENA         CLOUDY    36  34  93 N3        30.05R
GLENWOOD       MOCLDY    37  36  93 N3        30.04R
APPLETON       MOCLDY    36  34  93 CALM      30.03R FOG
BENSON         CLOUDY    36  36 100 CALM      30.03R
ORTONVILLE     MOCLDY    36  34  93 N3        30.03S FOG
MADISON        CLEAR     37  37 100 N6        30.03R FOG
WILLMAR        CLOUDY    39  36  87 CALM      30.04R
$$
MNZ033>034-036-042>043-049>051-058-059-301400-
   Central Minnesota

CITY           SKY/WX    TMP DP  RH WIND       PRES   REMARKS
ST CLOUD       CLOUDY    39  34  82 NE3       30.04R
SAUK CENTRE    CLOUDY    38  35  89 CALM      30.04R
PAYNESVILLE    CLOUDY    35  33  92 CALM      30.04R
AITKIN         MIX PCPN  37  34  87 CALM      30.04R
PINE RIVER     DRIZZLE   36  36 100 CALM      30.09R
BRAINERD       LGT RAIN  36  34  92 CALM      30.06R
STAPLES        CLOUDY    36  34  93 N3        30.05S
LONG PRAIRIE   CLOUDY    36  34  93 N3        30.05R
LITTLE FALLS   MOCLDY    36  32  87 CALM      30.04S
LITCHFIELD     CLOUDY    39  37  93 CALM      30.03R
BUFFALO        CLOUDY    39  34  81 CALM      30.04S
MAPLE LAKE     CLOUDY    40  36  85 CALM      30.04S
$$
MNZ037-044-045-052-053-301400-
   East Central Minnesota

CITY           SKY/WX    TMP DP  RH WIND       PRES   REMARKS
PRINCETON      PTCLDY    37  34  87 CALM      30.04S
MORA           CLOUDY    34  32  93 CALM      30.07R
CAMBRIDGE      MOCLDY    39  30  70 CALM      30.03S
RUSH CITY      CLOUDY    36  32  87 CALM      30.05S
MOOSE LAKE     CLOUDY    34  32  93 CALM      30.04S
HINCKLEY       CLOUDY    34  34 100 CALM      30.06R
CLOQUET        CLOUDY    34  32  93 W3        30.05R
MCGREGOR       CLOUDY    34  34 100 CALM      30.06R
$$
MNZ071>073-080-081-089-090-097-098-301400-
   Southwest Minnesota

CITY           SKY/WX    TMP DP  RH WIND       PRES   REMARKS
MONTEVIDEO     FAIR      36  36 100 NE5       30.04R
GRANITE FALLS  MOCLDY    37  34  92 CALM      30.03S
CANBY          CLEAR     34  33  96 NW5       30.03R FOG     WCI  30
MARSHALL       CLOUDY    39  34  81 CALM      30.00S
REDWOOD FALLS  CLOUDY    40  36  86 CALM      30.02R
OLIVIA         MOCLDY    39  36  87 SE3       30.01S
PIPESTONE      MOCLDY    39  34  81 CALM      29.99R
WINDOM           N/A     39  34  81 CALM      30.00R
WORTHINGTON    MOCLDY    39  34  81 CALM      30.00R
JACKSON        CLOUDY    41  34  75 SE7       29.99F
TRACY          CLOUDY    44  35  72 CALM      30.01R
SLAYTON        CLOUDY    40  35  82 CALM      30.00S
$$
MNZ065>067-074>077-082>085-091>093-301400-
   South Central Minnesota

CITY           SKY/WX    TMP DP  RH WIND       PRES   REMARKS
MANKATO        CLOUDY    41  34  75 SE7       30.03R
NEW ULM          N/A     39  37  93 E5        30.01S
ST JAMES       MOCLDY    41  36  81 CALM      30.02S
FAIRMONT       CLOUDY    41  34  75 SE5       30.01S
GLENCOE        MOCLDY    39  37  93 E3        30.02R
FARIBAULT      CLOUDY    39  36  87 CALM      30.04R
OWATONNA       CLOUDY    39  34  81 SE3       30.04R
WASECA         CLOUDY    36  32  87 E3        30.05S
ALBERT LEA     CLOUDY    39  36  87 SE3       30.03S
$$
MNZ078>079-086>088-094>096-301400-
   Southeast Minnesota

CITY           SKY/WX    TMP DP  RH WIND       PRES   REMARKS
ROCHESTER      CLOUDY    37  33  85 S7        30.05S
RED WING       CLOUDY    39  36  87 CALM      30.04F
STANTON        CLOUDY    40  35  81 CALM      30.03R
DODGE CENTER   CLOUDY    39  36  87 S5        30.03S
WINONA         MOCLDY    37  36  93 CALM      30.07S
AUSTIN         CLOUDY    37  34  87 SE3       30.03S
PRESTON        CLOUDY    35  32  89 S5        30.05S WCI  31
$$
ABBREVIATIONS USED IN REMARKS
   TC - TEMPERATURES IN CELSIUS
  WCI - WIND CHILL INDEX
   HX - HEAT INDEX
  VSB - VISIBILITY
$$



USA.gov is the U.S. government's official web portal to all federal, state and local government web resources and services.